Preview of NWS' New Version of Forecast
This preview is not operational and should not be used for support decisions.

Regional Weather Roundup (RWR)

Issued by Baltimore/Washington (LWX)

                            
000
ASUS41 KLWX 241611
RWRLWX

REGIONAL WEATHER ROUNDUP
NATIONAL WEATHER SERVICE BALTIMORE MD/WASHINGTON DC
1200 PM EDT WED APR 24 2019

Note: "FAIR" indicates few or no clouds below 12,000 feet
with no significant weather and/or obstructions to visibility.
 TC=TEMPERATURE CELSIUS

 * =Non NWS site. Station does not report precipitation (e.g. rain,
    snow, etc.), thunder, or fog.

DCZ001-MDZ009-015-VAZ040>042-051-053>054-241700-
WASHINGTON METRO
  
CITY           SKY/WX    TMP DP  RH WIND       PRES   REMARKS
WASHINGTON NAT PTSUNNY   70  46  42 NW10      29.90S                  
DULLES         PTSUNNY   67  43  41 NW14      29.90S                  
ANDREWS AFB    FAIR      67  44  43 NW20      29.88S                  
FT BELVOIR     FAIR      71  47  41 W12       29.88F                  
LEESBURG*      FAIR      68  46  45 NW18G24   29.90F                  
MANASSAS*      FAIR      71  50  47 N13       29.89F                  
GAITHERSBURG*  FAIR      67  42  40 NW14G21   29.90F                  

$$

MDZ006>007-011-014-241700-
BALTIMORE METRO
  
CITY           SKY/WX    TMP DP  RH WIND       PRES   REMARKS
BWI AIRPORT    FAIR      69  41  36 NW13      29.87S                  
MD SCIENCE CTR   N/A     69  37  30 MISG      29.87F                  
MARTIN STATE   MOSUNNY   70  45  40 NW12      29.88F                  
ANNAPOLIS      FAIR      70  40  33 NW9G18    29.87F                  
ABERDEEN*      MOSUNNY   68  48  49 NW10G17   29.87S                  

$$

MDZ012-015-019>023-241700-
MARYLAND EASTERN SHORE
  
CITY           SKY/WX    TMP DP  RH WIND       PRES   REMARKS
OCEAN CITY     FAIR      76  57  51 NW10      29.83S                  
SALISBURY      FAIR      74  56  53 W14G21    29.84S                  
CAMBRIDGE*     SUNNY     70  48  46 NW16G22   29.87S                  
EASTON*        PTSUNNY   70  43  37 NW18G24   29.90S                  

$$

MDZ017>025-241700-
SOUTHERN MARYLAND
  
CITY           SKY/WX    TMP DP  RH WIND       PRES   REMARKS
PATUXENT RIVER NOT AVBL                                               
ST INIGOES     FAIR      72  56  57 VRB5      29.85S                  
LEONARDTOWN*   FAIR      72  52  49 W7        29.88S                  

$$

MDZ003>005-241700-
NORTH CENTRAL MARYLAND
  
CITY           SKY/WX    TMP DP  RH WIND       PRES   REMARKS
FREDERICK*     SUNNY     68  39  34 NW12G21   29.93S                  
HAGERSTOWN APT FAIR      65  42  43 W12       29.90F                  

$$

MDZ501>502-241700-
WESTERN MARYLAND
  
CITY           SKY/WX    TMP DP  RH WIND       PRES   REMARKS
OAKLAND*       FAIR      52  30  43 NW7G17    29.97S                  
CUMBERLAND*    NOT AVBL                                               

$$

VAZ025>031-241700-
SHENANDOAH VALLEY
  
CITY           SKY/WX    TMP DP  RH WIND       PRES   REMARKS
WINCHESTER*    FAIR      66  43  42 NW10G20   29.92S                  
FRONT ROYAL*   FAIR      70  45  40 W8        29.89S                  
LURAY*         FAIR      70  45  40 W6        29.91S                  
NEW MARKET*    FAIR      71  44  37 CALM      29.89S                  
STAUNTON*      FAIR      70  52  52 W6        29.93S                  
WAYNESBORO*    FAIR      69  55  59 W6        29.92S                  

$$

WVZ021-048>050-054>055-241700-
EASTERN WEST VIRGINIA PANHANDLE
  
CITY           SKY/WX    TMP DP  RH WIND       PRES   REMARKS
MARTINSBURG    FAIR      68  40  35 NW8       29.89F                  
PETERSBURG*    FAIR      66  40  38 SW6       29.93F                  

$$

VAZ036>039-050-241700-
CENTRAL FOOTHILLS
  
CITY           SKY/WX    TMP DP  RH WIND       PRES   REMARKS
CHARLOTTESVILL FAIR      75  54  47 NW3       29.88S                  
CULPEPER*      FAIR      70  50  50 NE6       29.90S                  
ORANGE*        FAIR      68  54  60 NE5       29.89S                  
GORDONSVILLE*  FAIR      71  58  64 NE9       29.88S                  
WARRENTON*     FAIR      71  47  43 N5        29.89S                  

$$

VAZ055>057-241700-
NORTH AND CENTRAL PIEDMONT
  
CITY           SKY/WX    TMP DP  RH WIND       PRES   REMARKS
FREDERICKSBRG* FAIR      70  55  59 N5        29.88S                  
STAFFORD*      FAIR      71  54  55 NW6       29.92F                  

$$

NCZ024-NYZ072-PAZ021-071-VAZ022-071-241700-
OTHER REGIONAL OBSERVATIONS
  
CITY           SKY/WX    TMP DP  RH WIND       PRES   REMARKS
NEW YORK CITY  FAIR      65  38  36 W6        29.80S                  
PHILADELPHIA   FAIR      67  40  37 W10       29.83S                  
PITTSBURGH     FAIR      56  38  50 W7        29.99S                  
ROANOKE        FAIR      73  55  53 W15       29.96F                  
RICHMOND       PTSUNNY   79  54  41 NW14G23   29.86S                  
RALEIGH        PTSUNNY   79  56  45 VRB7      29.94S                  

$$

ANZ530>537-241700-
MARINE OBSERVATIONS
  
STATION/POSITION TIME  TEMP    WIND        PRES
                       AIR SEA DIR/SP/G
                 (UTC) (F)     (DEG/KT/KT) (MB)
THOMAS PT LIGHT  1600   65 62  280/ 17/ 20 1012.3S
BALT KEY BRIDGE  1548   64     290/ 14/ 16 1011.3F
COVE POINT       1548   62      20/ 11/ 13 1012.0F
LEWISETTA        1542   73 65   20/  6/  8 1011.0F
SOLOMONS ISLAND  1542   69 61  320/ 10/ 15 1010.7S
PINEY POINT      1536          340/ 14/ 15   N/A

$$